Location: Kraków
(50.0647°N, 19.9450°E)
Time: 04:29:35
(UTC+01:00)

ISS - Visible Passes

Search period start: 18 February 2020 00:00
Search period end: 28 February 2020 00:00
Orbit: 415 x 423 km, 51.6° (Epoch: 18 February)

Date Brightness Start Highest point End Pass type
(mag) Time Alt. Az. Time Alt. Az. Time Alt. Az.
21 Feb -0.9 05:56:56 10° S 05:59:11 17° SE 06:01:26 10° E visible
22 Feb -0.6 05:10:44 10° SSE 05:11:45 11° SE 05:12:48 10° ESE visible
23 Feb -2.2 05:57:14 10° SW 06:00:20 34° SSE 06:03:27 10° E visible
24 Feb -1.7 05:10:01 10° SSW 05:12:48 24° SE 05:15:36 10° E visible
25 Feb -1.3 04:24:10 14° SSE 04:25:17 17° SE 04:27:31 10° E visible
25 Feb -3.4 05:58:16 10° WSW 06:01:37 67° SSE 06:05:00 10° ENE visible
26 Feb -0.6 03:38:38 10° ESE 03:38:38 10° ESE 03:38:48 10° ESE visible
26 Feb -3.0 05:11:36 17° SW 05:13:58 48° SSE 05:17:15 10° ENE visible
27 Feb -2.6 04:25:57 33° SSE 04:26:21 34° SSE 04:29:28 10° E visible
